20040724,000006,959062,34.176333,-119.514500,18.248,33.410,NaN,NaN
20040724,000036,959092,34.176833,-119.513000,18.261,33.410,NaN,NaN
20040724,000106,959122,34.177333,-119.511500,18.248,33.409,NaN,NaN
20040724,000136,959152,34.178000,-119.510000,18.237,33.409,2.401,NaN
20040724,000206,959182,34.178500,-119.508500,18.215,33.407,NaN,NaN
20040724,000236,959212,34.179167,-119.507000,18.194,33.406,NaN,NaN
20040724,000306,959242,34.179833,-119.505500,18.178,33.405,NaN,NaN
20040724,000336,959272,34.180500,-119.504000,18.168,33.403,NaN,NaN
20040724,000406,959302,34.181167,-119.502500,18.162,33.404,NaN,NaN
20040724,000436,959332,34.182000,-119.501000,18.125,33.403,NaN,NaN
20040724,000506,959362,34.182667,-119.499500,18.078,33.401,NaN,NaN
20040724,000536,959392,34.183333,-119.498000,18.048,33.399,NaN,NaN
20040724,000606,959422,34.184000,-119.496500,18.031,33.398,NaN,NaN
20040724,000636,959452,34.184833,-119.495000,18.021,33.396,NaN,NaN
20040724,000706,959482,34.185500,-119.493667,18.041,33.396,NaN,NaN
20040724,000736,959512,34.186167,-119.492167,18.108,33.397,NaN,NaN
20040724,000806,959542,34.187000,-119.490500,18.211,33.401,NaN,NaN
20040724,000836,959572,34.187667,-119.489167,18.336,33.407,NaN,NaN
20040724,000906,959602,34.188333,-119.487667,18.432,33.411,NaN,NaN
20040724,000936,959632,34.189167,-119.486167,18.527,33.414,NaN,NaN
20040724,001006,959662,34.189833,-119.484667,18.590,33.417,NaN,NaN
20040724,001036,959692,34.190500,-119.483167,18.649,33.420,NaN,NaN
20040724,001106,959722,34.191333,-119.481667,18.722,33.420,NaN,NaN
20040724,001136,959752,34.192000,-119.480167,18.747,33.424,NaN,NaN
20040724,001206,959782,34.192667,-119.478667,18.711,33.423,NaN,NaN
20040724,001236,959812,34.193333,-119.477333,18.718,33.421,NaN,NaN
20040724,001306,959842,34.194167,-119.475833,18.815,33.422,NaN,NaN
20040724,001336,959872,34.194667,-119.474333,18.907,33.427,NaN,NaN
20040724,001406,959902,34.195333,-119.472833,18.952,33.431,NaN,NaN
20040724,001436,959932,34.196167,-119.471333,18.957,33.431,NaN,NaN
20040724,001506,959962,34.196833,-119.469833,18.955,33.431,NaN,NaN
20040724,001536,959992,34.197500,-119.468333,18.947,33.432,NaN,NaN
20040724,001606,960022,34.198167,-119.466833,18.938,33.432,NaN,NaN
20040724,001636,960052,34.198833,-119.465333,18.939,33.431,NaN,NaN
20040724,001706,960082,34.199500,-119.463833,18.947,33.431,NaN,NaN
20040724,001736,960112,34.200167,-119.462500,18.954,33.431,NaN,NaN
20040724,001806,960142,34.201000,-119.461000,18.941,33.432,NaN,NaN
20040724,001836,960172,34.201667,-119.459500,18.910,33.431,NaN,NaN
20040724,001906,960202,34.202333,-119.458000,18.867,33.430,NaN,NaN
20040724,001936,960232,34.203000,-119.456500,18.820,33.428,NaN,NaN
20040724,002006,960262,34.203667,-119.455000,18.777,33.428,NaN,NaN
20040724,002036,960292,34.204500,-119.453500,18.734,33.426,NaN,NaN
20040724,002106,960322,34.205167,-119.452167,18.691,33.425,NaN,NaN
20040724,002136,960352,34.206000,-119.450667,18.616,33.424,NaN,NaN
20040724,002206,960382,34.206667,-119.449167,18.555,33.418,NaN,NaN
20040724,002236,960412,34.207500,-119.447667,18.499,33.414,NaN,NaN
20040724,002306,960442,34.208167,-119.446167,18.448,33.413,NaN,NaN
20040724,002336,960472,34.208833,-119.444833,18.402,33.411,NaN,NaN
20040724,002406,960502,34.209667,-119.443333,18.358,33.409,NaN,NaN
20040724,002436,960532,34.210333,-119.442000,18.327,33.406,NaN,NaN
20040724,002506,960562,34.211167,-119.440500,18.288,33.403,NaN,NaN
20040724,002536,960592,34.211833,-119.439000,18.245,33.402,NaN,NaN
20040724,002606,960622,34.212667,-119.437667,18.216,33.401,NaN,NaN
20040724,002636,960652,34.213333,-119.436167,18.200,33.398,NaN,NaN
20040724,002706,960682,34.214000,-119.434667,18.187,33.395,NaN,NaN
20040724,002736,960712,34.214667,-119.433167,18.170,33.394,NaN,NaN
20040724,002806,960742,34.215333,-119.431667,18.161,33.391,NaN,NaN
20040724,002836,960772,34.215833,-119.430000,18.161,33.388,NaN,NaN
20040724,002906,960802,34.216500,-119.428500,18.168,33.387,NaN,NaN
20040724,002936,960832,34.217167,-119.427000,18.178,33.385,NaN,NaN
20040724,003006,960862,34.217667,-119.425500,18.191,33.385,NaN,NaN
20040724,003036,960892,34.218333,-119.424000,18.225,33.384,NaN,NaN
20040724,003106,960922,34.219000,-119.422500,18.284,33.383,NaN,NaN
20040724,003136,960952,34.219667,-119.420833,18.314,33.389,4.740,NaN
20040724,003206,960982,34.220167,-119.419333,18.315,33.390,NaN,NaN
20040724,003236,961012,34.221000,-119.417833,18.332,33.389,NaN,NaN
20040724,003306,961042,34.221833,-119.416500,18.380,33.389,NaN,NaN
20040724,003336,961072,34.222667,-119.415333,18.403,33.391,NaN,NaN
20040724,003406,961102,34.223500,-119.414000,18.411,33.393,NaN,NaN
20040724,003436,961132,34.224167,-119.412833,18.418,33.393,NaN,NaN
20040724,003506,961162,34.224833,-119.412167,18.424,33.394,NaN,NaN
20040724,003536,961192,34.225333,-119.411667,18.422,33.394,NaN,NaN
20040724,003606,961222,34.225833,-119.411167,18.427,33.394,NaN,NaN
20040724,003636,961252,34.226167,-119.410833,18.429,33.393,NaN,NaN
20040724,003706,961282,34.226500,-119.410667,18.431,33.394,NaN,NaN
20040724,003736,961312,34.226833,-119.410333,18.436,33.394,NaN,NaN
20040724,003806,961342,34.227000,-119.410167,18.438,33.395,NaN,NaN
20040724,003836,961372,34.227333,-119.410000,18.438,33.395,NaN,NaN
20040724,003906,961402,34.227667,-119.409500,18.436,33.395,NaN,NaN
20040724,003936,961432,34.227667,-119.409000,18.416,33.396,NaN,NaN
20040724,004006,961462,34.227333,-119.408667,18.409,33.395,NaN,NaN
20040724,004036,961492,34.227000,-119.408667,18.411,33.394,NaN,NaN
20040724,004106,961522,34.226667,-119.408833,18.412,33.394,NaN,NaN
20040724,004136,961552,34.226667,-119.408833,18.411,33.394,NaN,NaN
20040724,004206,961582,34.226667,-119.408833,18.413,33.394,NaN,NaN
20040724,004236,961612,34.226667,-119.408833,18.421,33.394,NaN,NaN
20040724,004306,961642,34.226500,-119.408833,18.413,33.395,NaN,NaN
20040724,004336,961672,34.226500,-119.408833,18.411,33.394,NaN,NaN
20040724,004406,961702,34.226500,-119.408833,18.419,33.393,NaN,NaN
20040724,004436,961732,34.226500,-119.408833,18.424,33.394,NaN,NaN
20040724,004506,961762,34.226500,-119.408833,18.421,33.394,NaN,NaN
20040724,004536,961792,34.226500,-119.408667,18.422,33.395,NaN,NaN
20040724,004606,961822,34.226500,-119.408500,18.421,33.394,NaN,NaN
20040724,004636,961852,34.226667,-119.408333,18.422,33.395,NaN,NaN
20040724,004706,961882,34.226667,-119.408333,18.418,33.394,NaN,NaN
20040724,004736,961912,34.226833,-119.408167,18.417,33.394,NaN,NaN
20040724,004806,961942,34.226833,-119.408167,18.422,33.394,NaN,NaN
20040724,004836,961972,34.226833,-119.408000,18.424,33.394,NaN,NaN
20040724,004906,962002,34.227000,-119.408000,18.420,33.395,NaN,NaN
20040724,004936,962032,34.227000,-119.407833,18.353,33.398,NaN,NaN
20040724,005006,962062,34.227167,-119.407667,18.211,33.396,NaN,NaN
20040724,005036,962092,34.227167,-119.407500,18.162,33.392,NaN,NaN
20040724,005106,962122,34.227333,-119.407167,18.148,33.390,NaN,NaN
20040724,005136,962152,34.227333,-119.407167,18.260,33.388,NaN,NaN
20040724,005206,962182,34.227500,-119.407000,18.335,33.388,NaN,NaN
20040724,005236,962212,34.227500,-119.406833,18.374,33.391,NaN,NaN
20040724,005306,962242,34.227667,-119.406667,18.394,33.394,NaN,NaN
20040724,005336,962272,34.227667,-119.406500,18.403,33.393,NaN,NaN
20040724,005406,962302,34.227833,-119.406333,18.411,33.394,NaN,NaN
20040724,005436,962332,34.227833,-119.406333,18.419,33.394,NaN,NaN
20040724,005506,962362,34.228000,-119.406167,18.424,33.395,NaN,NaN
20040724,005536,962392,34.228000,-119.406167,18.428,33.395,NaN,NaN
20040724,005606,962422,34.228000,-119.406167,18.427,33.395,NaN,NaN
20040724,005636,962452,34.228167,-119.406000,18.427,33.395,NaN,NaN
20040724,005706,962482,34.228167,-119.406000,18.430,33.394,NaN,NaN
20040724,005736,962512,34.228167,-119.406167,18.430,33.395,NaN,NaN
20040724,005806,962542,34.228167,-119.406167,18.415,33.394,NaN,NaN
20040724,005836,962572,34.228167,-119.406000,18.420,33.394,NaN,NaN
20040724,005906,962602,34.228000,-119.406000,18.417,33.395,NaN,NaN
20040724,005936,962632,34.227833,-119.406000,18.414,33.394,NaN,NaN
20040724,010006,962662,34.227667,-119.406000,18.419,33.394,NaN,NaN
20040724,010036,962692,34.227667,-119.406000,18.417,33.394,NaN,NaN
20040724,010106,962722,34.227500,-119.406000,18.411,33.394,NaN,NaN
20040724,010136,962752,34.227500,-119.406000,18.401,33.394,11.473,NaN
20040724,010206,962782,34.227333,-119.406000,18.377,33.394,NaN,NaN
20040724,010236,962812,34.227333,-119.405833,18.355,33.393,NaN,NaN
20040724,010306,962842,34.227167,-119.405833,18.314,33.395,NaN,NaN
20040724,010336,962872,34.227000,-119.405833,18.282,33.394,NaN,NaN
20040724,010406,962902,34.227000,-119.405833,18.243,33.390,NaN,NaN
20040724,010436,962932,34.227000,-119.405833,18.193,33.391,NaN,NaN
20040724,010506,962962,34.226833,-119.405833,18.178,33.389,NaN,NaN
20040724,010536,962992,34.226833,-119.405833,18.204,33.389,NaN,NaN
20040724,010606,963022,34.226667,-119.405833,18.234,33.390,NaN,NaN
20040724,010636,963052,34.226500,-119.405667,18.242,33.390,NaN,NaN
20040724,010706,963082,34.226167,-119.405500,18.245,33.391,NaN,NaN
20040724,010736,963112,34.226000,-119.405500,18.158,33.391,NaN,NaN
20040724,010806,963142,34.225833,-119.405500,18.113,33.390,NaN,NaN
20040724,010836,963172,34.225667,-119.405667,18.179,33.387,NaN,NaN
20040724,010906,963202,34.225667,-119.405667,18.234,33.391,NaN,NaN
20040724,010936,963232,34.225500,-119.405833,18.211,33.391,NaN,NaN
20040724,011006,963262,34.225500,-119.405833,18.174,33.391,NaN,NaN
20040724,011036,963292,34.225333,-119.406000,18.165,33.390,NaN,NaN
20040724,011106,963322,34.225333,-119.406000,18.152,33.390,NaN,NaN
20040724,011136,963352,34.225167,-119.406000,18.153,33.388,NaN,NaN
20040724,011206,963382,34.225000,-119.406167,18.230,33.387,NaN,NaN
20040724,011236,963412,34.224833,-119.406333,18.248,33.391,NaN,NaN
20040724,011306,963442,34.224833,-119.406333,18.252,33.391,NaN,NaN
20040724,011336,963472,34.224500,-119.406500,18.227,33.391,NaN,NaN
20040724,011406,963502,34.224500,-119.406500,18.246,33.389,NaN,NaN
20040724,011436,963532,34.224333,-119.406667,18.287,33.390,NaN,NaN
20040724,011506,963562,34.224167,-119.406833,18.332,33.390,NaN,NaN
20040724,011536,963592,34.224000,-119.406833,18.349,33.393,NaN,NaN
20040724,011606,963622,34.223833,-119.406833,18.355,33.393,NaN,NaN
20040724,011636,963652,34.223667,-119.407000,18.345,33.393,NaN,NaN
20040724,011706,963682,34.223500,-119.407000,18.321,33.392,NaN,NaN
20040724,011736,963712,34.223500,-119.407000,18.317,33.393,NaN,NaN
20040724,011806,963742,34.223333,-119.407167,18.313,33.392,NaN,NaN
20040724,011836,963772,34.223167,-119.407333,18.322,33.391,NaN,NaN
20040724,011906,963802,34.223000,-119.407333,18.336,33.392,NaN,NaN
20040724,011936,963832,34.222833,-119.407500,18.345,33.392,NaN,NaN
20040724,012006,963862,34.222667,-119.407500,18.346,33.392,NaN,NaN
20040724,012036,963892,34.222500,-119.407667,18.343,33.392,NaN,NaN
20040724,012106,963922,34.222333,-119.407667,18.351,33.392,NaN,NaN
20040724,012136,963952,34.222167,-119.407667,18.356,33.392,NaN,NaN
20040724,012206,963982,34.222000,-119.407833,18.358,33.392,NaN,NaN
20040724,012236,964012,34.222000,-119.407833,18.358,33.393,NaN,NaN
20040724,012306,964042,34.221833,-119.407833,18.348,33.393,NaN,NaN
20040724,012336,964072,34.221667,-119.408000,18.339,33.393,NaN,NaN
20040724,012406,964102,34.221333,-119.408167,18.338,33.393,NaN,NaN
20040724,012436,964132,34.221167,-119.408333,18.336,33.393,NaN,NaN
20040724,012506,964162,34.221000,-119.408667,18.338,33.392,NaN,NaN
20040724,012536,964192,34.220833,-119.409000,18.341,33.392,NaN,NaN
20040724,012606,964222,34.220667,-119.409500,18.335,33.393,NaN,NaN
20040724,012636,964252,34.220500,-119.409667,18.336,33.392,NaN,NaN
20040724,012706,964282,34.220333,-119.410000,18.334,33.392,NaN,NaN
20040724,012736,964312,34.220333,-119.410167,18.325,33.392,NaN,NaN
20040724,012806,964342,34.220167,-119.410333,18.317,33.391,NaN,NaN
20040724,012836,964372,34.220000,-119.410500,18.323,33.391,NaN,NaN
20040724,012906,964402,34.219833,-119.410667,18.324,33.392,NaN,NaN
20040724,012936,964432,34.219667,-119.410833,18.328,33.392,NaN,NaN
20040724,013006,964462,34.219500,-119.411000,18.329,33.392,NaN,NaN
20040724,013036,964492,34.219333,-119.411167,18.324,33.392,NaN,NaN
20040724,013106,964522,34.219167,-119.411333,18.312,33.392,NaN,NaN
20040724,013136,964552,34.219000,-119.411500,18.316,33.392,13.640,NaN
20040724,013206,964582,34.218833,-119.411667,18.312,33.392,NaN,NaN
20040724,013236,964612,34.218667,-119.412000,18.301,33.391,NaN,NaN
20040724,013306,964642,34.218667,-119.412167,18.283,33.392,NaN,NaN
20040724,013336,964672,34.218500,-119.412333,18.267,33.390,NaN,NaN
20040724,013406,964702,34.218333,-119.412500,18.267,33.391,NaN,NaN
20040724,013436,964732,34.218167,-119.412667,18.267,33.390,NaN,NaN
20040724,013506,964762,34.218333,-119.413000,18.267,33.390,NaN,NaN
20040724,013536,964792,34.218500,-119.413167,18.279,33.390,NaN,NaN
20040724,013606,964822,34.218833,-119.413000,18.297,33.390,NaN,NaN
20040724,013636,964852,34.219000,-119.412667,18.316,33.391,NaN,NaN
20040724,013706,964882,34.219333,-119.412167,18.324,33.391,NaN,NaN
20040724,013736,964912,34.219500,-119.411667,18.333,33.391,NaN,NaN
20040724,013806,964942,34.219833,-119.411167,18.333,33.393,NaN,NaN
20040724,013836,964972,34.220167,-119.410333,18.331,33.392,NaN,NaN
20040724,013906,965002,34.220333,-119.409667,18.332,33.392,NaN,NaN
20040724,013936,965032,34.220667,-119.408833,18.338,33.392,NaN,NaN
20040724,014006,965062,34.221000,-119.407833,18.342,33.393,NaN,NaN
20040724,014036,965092,34.221500,-119.406667,18.340,33.393,NaN,NaN
20040724,014106,965122,34.222000,-119.405167,18.326,33.393,NaN,NaN
20040724,014136,965152,34.222667,-119.403667,18.294,33.394,NaN,NaN
20040724,014205,965181,34.223167,-119.402167,18.220,33.396,NaN,NaN
20040724,014235,965211,34.223833,-119.400667,18.171,33.391,NaN,NaN
20040724,014305,965241,34.224500,-119.399167,18.252,33.387,NaN,NaN
20040724,014335,965271,34.225167,-119.397667,18.289,33.391,NaN,NaN
20040724,014405,965301,34.225833,-119.396167,18.312,33.391,NaN,NaN
20040724,014435,965331,34.226667,-119.394667,18.335,33.392,NaN,NaN
20040724,014505,965361,34.227333,-119.393000,18.365,33.393,NaN,NaN
20040724,014535,965391,34.228000,-119.391667,18.387,33.394,NaN,NaN
20040724,014605,965421,34.228667,-119.390000,18.392,33.395,NaN,NaN
20040724,014635,965451,34.229500,-119.388500,18.394,33.395,NaN,NaN
20040724,014705,965481,34.230167,-119.387167,18.418,33.396,NaN,NaN
20040724,014735,965511,34.231000,-119.385667,18.446,33.396,NaN,NaN
20040724,014805,965541,34.231667,-119.384000,18.457,33.397,NaN,NaN
20040724,014835,965571,34.232500,-119.382500,18.472,33.397,NaN,NaN
20040724,014905,965601,34.233167,-119.381000,18.505,33.398,NaN,NaN
20040724,014935,965631,34.234000,-119.379500,18.537,33.397,NaN,NaN
20040724,015005,965661,34.234667,-119.378000,18.552,33.398,NaN,NaN
20040724,015035,965691,34.235333,-119.376500,18.568,33.399,NaN,NaN
20040724,015105,965721,34.236167,-119.375000,18.584,33.400,NaN,NaN
20040724,015135,965751,34.237000,-119.373667,18.621,33.399,NaN,NaN
20040724,015205,965781,34.237667,-119.372000,18.663,33.403,NaN,NaN
20040724,015235,965811,34.238333,-119.370500,18.678,33.405,NaN,NaN
20040724,015305,965841,34.239167,-119.369000,18.673,33.406,NaN,NaN
20040724,015335,965871,34.239833,-119.367500,18.681,33.407,NaN,NaN
20040724,015405,965901,34.240667,-119.366000,18.706,33.409,NaN,NaN
20040724,015435,965931,34.241333,-119.364500,18.731,33.410,NaN,NaN
20040724,015505,965961,34.242000,-119.363000,18.755,33.413,NaN,NaN
20040724,015535,965991,34.242833,-119.361500,18.752,33.415,NaN,NaN
20040724,015605,966021,34.243500,-119.360000,18.730,33.415,NaN,NaN
20040724,015635,966051,34.244167,-119.358500,18.711,33.414,NaN,NaN
20040724,015705,966081,34.245000,-119.357000,18.706,33.414,NaN,NaN
20040724,015735,966111,34.245667,-119.355500,18.693,33.414,NaN,NaN
20040724,015805,966141,34.246500,-119.354000,18.647,33.414,NaN,NaN
20040724,015835,966171,34.247167,-119.352500,18.581,33.415,NaN,NaN
20040724,015905,966201,34.248000,-119.351000,18.530,33.411,NaN,NaN
20040724,015935,966231,34.248667,-119.349500,18.531,33.408,NaN,NaN
20040724,020005,966261,34.249500,-119.348000,18.556,33.409,NaN,NaN
20040724,020035,966291,34.250167,-119.346500,18.550,33.408,NaN,NaN
20040724,020105,966321,34.250833,-119.345000,18.517,33.409,NaN,NaN
20040724,020135,966351,34.251667,-119.343500,18.441,33.409,20.635,NaN
20040724,020205,966381,34.252333,-119.341833,18.300,33.404,NaN,NaN
20040724,020235,966411,34.253000,-119.340333,18.168,33.397,NaN,NaN
20040724,020305,966441,34.253667,-119.338667,18.096,33.389,NaN,NaN
20040724,020335,966471,34.254167,-119.337000,18.043,33.384,NaN,NaN
20040724,020405,966501,34.254667,-119.335333,18.032,33.378,NaN,NaN
20040724,020435,966531,34.255000,-119.333667,18.005,33.380,NaN,NaN
20040724,020505,966561,34.255500,-119.332000,17.925,33.375,NaN,NaN
20040724,020535,966591,34.255833,-119.330167,17.845,33.372,NaN,NaN
20040724,020605,966621,34.256333,-119.328667,17.731,33.375,NaN,NaN
20040724,020635,966651,34.256667,-119.327333,17.595,33.372,NaN,NaN
20040724,020705,966681,34.256833,-119.326333,17.528,33.370,NaN,NaN
20040724,020735,966711,34.257167,-119.325500,17.529,33.365,NaN,NaN
20040724,020805,966741,34.257500,-119.324833,17.534,33.366,NaN,NaN
20040724,020835,966771,34.257833,-119.324500,17.537,33.365,NaN,NaN
20040724,020905,966801,34.258167,-119.324333,17.534,33.365,NaN,NaN
20040724,020935,966831,34.258500,-119.324333,17.529,33.365,NaN,NaN
20040724,021005,966861,34.258667,-119.324333,17.521,33.366,NaN,NaN
20040724,021035,966891,34.258667,-119.324167,17.517,33.366,NaN,NaN
20040724,021105,966921,34.258667,-119.324167,17.523,33.365,NaN,NaN
20040724,021135,966951,34.258833,-119.324167,17.532,33.366,NaN,NaN
20040724,021205,966981,34.258833,-119.324167,17.534,33.366,NaN,NaN
20040724,021235,967011,34.259000,-119.324000,17.538,33.366,NaN,NaN
20040724,021305,967041,34.259000,-119.323833,17.545,33.365,NaN,NaN
20040724,021335,967071,34.259000,-119.323667,17.546,33.364,NaN,NaN
20040724,021405,967101,34.259000,-119.323500,17.534,33.364,NaN,NaN
20040724,021435,967131,34.259000,-119.323333,17.525,33.364,NaN,NaN
20040724,021505,967161,34.259000,-119.323333,17.521,33.363,NaN,NaN
20040724,021535,967191,34.259000,-119.323167,17.513,33.363,NaN,NaN
20040724,021605,967221,34.259167,-119.323000,17.513,33.363,NaN,NaN
20040724,021635,967251,34.259167,-119.322833,17.513,33.363,NaN,NaN
20040724,021705,967281,34.259167,-119.322667,17.512,33.364,NaN,NaN
20040724,021735,967311,34.259167,-119.322500,17.513,33.363,NaN,NaN
20040724,021805,967341,34.259333,-119.322500,17.513,33.363,NaN,NaN
20040724,021835,967371,34.259333,-119.322333,17.514,33.363,NaN,NaN
20040724,021905,967401,34.259333,-119.322333,17.515,33.364,NaN,NaN
20040724,021935,967431,34.259333,-119.322167,17.509,33.364,NaN,NaN
20040724,022005,967461,34.259333,-119.322000,17.501,33.364,NaN,NaN
20040724,022035,967491,34.259333,-119.321833,17.496,33.364,NaN,NaN
20040724,022105,967521,34.259333,-119.321667,17.495,33.364,NaN,NaN
20040724,022135,967551,34.259333,-119.321500,17.491,33.365,NaN,NaN
20040724,022205,967581,34.259333,-119.321333,17.484,33.364,NaN,NaN
20040724,022235,967611,34.259333,-119.321167,17.477,33.364,NaN,NaN
20040724,022305,967641,34.259333,-119.321000,17.475,33.364,NaN,NaN
20040724,022335,967671,34.259333,-119.320833,17.475,33.364,NaN,NaN
20040724,022405,967701,34.259333,-119.320833,17.474,33.365,NaN,NaN
20040724,022435,967731,34.259333,-119.320500,17.477,33.364,NaN,NaN
20040724,022505,967761,34.259333,-119.320500,17.482,33.364,NaN,NaN
20040724,022535,967791,34.259500,-119.320167,17.475,33.364,NaN,NaN
20040724,022605,967821,34.259667,-119.320333,17.456,33.364,NaN,NaN
20040724,022635,967851,34.259667,-119.320333,17.441,33.364,NaN,NaN
20040724,022705,967881,34.259667,-119.320333,17.436,33.363,NaN,NaN
20040724,022735,967911,34.259667,-119.320500,17.448,33.363,NaN,NaN
20040724,022805,967941,34.259667,-119.320833,17.456,33.364,NaN,NaN
20040724,022835,967971,34.259500,-119.321000,17.457,33.363,NaN,NaN
20040724,022905,968001,34.259333,-119.321333,17.466,33.363,NaN,NaN
20040724,022935,968031,34.259333,-119.321667,17.476,33.364,NaN,NaN
20040724,023005,968061,34.259167,-119.322000,17.480,33.364,NaN,NaN
20040724,023035,968091,34.259167,-119.322333,17.483,33.364,NaN,NaN
20040724,023105,968121,34.259000,-119.322500,17.483,33.365,NaN,NaN
20040724,023135,968151,34.259000,-119.322667,17.480,33.365,588.161,NaN
20040724,023205,968181,34.258833,-119.322667,17.474,33.365,NaN,NaN
20040724,023235,968211,34.258833,-119.322833,17.467,33.366,NaN,NaN
20040724,023305,968241,34.258833,-119.322833,17.470,33.365,NaN,NaN
20040724,023335,968271,34.258833,-119.322833,17.472,33.365,NaN,NaN
20040724,023405,968301,34.258667,-119.323000,17.473,33.365,NaN,NaN
20040724,023435,968331,34.258667,-119.323000,17.476,33.365,NaN,NaN
20040724,023505,968361,34.258667,-119.323000,17.483,33.365,NaN,NaN
20040724,023535,968391,34.258667,-119.323000,17.485,33.365,NaN,NaN
20040724,023605,968421,34.258667,-119.323167,17.477,33.366,NaN,NaN
20040724,023635,968451,34.258833,-119.323000,17.471,33.366,NaN,NaN
20040724,023705,968481,34.259000,-119.323000,17.467,33.365,NaN,NaN
20040724,023735,968511,34.259167,-119.323167,17.459,33.366,NaN,NaN
20040724,023805,968541,34.259167,-119.323167,17.451,33.365,NaN,NaN
20040724,023835,968571,34.259333,-119.323500,17.451,33.365,NaN,NaN
20040724,023905,968601,34.259333,-119.324167,17.449,33.365,NaN,NaN
20040724,023935,968631,34.259333,-119.325000,17.422,33.366,NaN,NaN
20040724,024005,968661,34.259500,-119.326000,17.367,33.368,NaN,NaN
20040724,024035,968691,34.259667,-119.327167,17.350,33.365,NaN,NaN
20040724,024105,968721,34.260000,-119.328500,17.405,33.362,NaN,NaN
20040724,024135,968751,34.260167,-119.330000,17.518,33.360,NaN,NaN
20040724,024205,968781,34.260333,-119.331500,17.627,33.365,NaN,NaN
20040724,024235,968811,34.260667,-119.333000,17.735,33.367,NaN,NaN
20040724,024305,968841,34.260833,-119.334500,17.797,33.369,NaN,NaN
20040724,024335,968871,34.261167,-119.336000,17.845,33.372,NaN,NaN
20040724,024405,968901,34.261333,-119.337500,17.882,33.374,NaN,NaN
20040724,024435,968931,34.261667,-119.339000,17.902,33.375,NaN,NaN
20040724,024505,968961,34.261833,-119.340500,17.915,33.376,NaN,NaN
20040724,024535,968991,34.262167,-119.342000,17.921,33.377,NaN,NaN
20040724,024605,969021,34.262333,-119.343667,17.988,33.374,NaN,NaN
20040724,024635,969051,34.262667,-119.345167,18.240,33.372,NaN,NaN
20040724,024705,969081,34.262833,-119.346667,18.382,33.397,NaN,NaN
20040724,024735,969111,34.263000,-119.348167,18.491,33.404,NaN,NaN
20040724,024805,969141,34.263333,-119.349667,18.550,33.403,NaN,NaN
20040724,024835,969171,34.263500,-119.351167,18.564,33.410,NaN,NaN
20040724,024905,969201,34.263667,-119.352667,18.558,33.411,NaN,NaN
20040724,024935,969231,34.264000,-119.354167,18.554,33.411,NaN,NaN
20040724,025005,969261,34.264167,-119.355667,18.540,33.412,NaN,NaN
20040724,025035,969291,34.264333,-119.357167,18.522,33.413,NaN,NaN
20040724,025105,969321,34.264667,-119.358667,18.502,33.414,NaN,NaN
20040724,025135,969351,34.264833,-119.360333,18.463,33.413,NaN,NaN
20040724,025205,969381,34.265000,-119.361833,18.458,33.411,NaN,NaN
20040724,025235,969411,34.265333,-119.363333,18.460,33.413,NaN,NaN
20040724,025305,969441,34.265667,-119.365000,18.467,33.414,NaN,NaN
20040724,025335,969471,34.266000,-119.366500,18.460,33.415,NaN,NaN
20040724,025405,969501,34.266167,-119.368000,18.462,33.415,NaN,NaN
20040724,025435,969531,34.266500,-119.369500,18.471,33.414,NaN,NaN
20040724,025505,969561,34.266833,-119.371000,18.490,33.414,NaN,NaN
20040724,025535,969591,34.267167,-119.372500,18.507,33.415,NaN,NaN